Time,TemperatureF,DewpointF,PressureIn,WindDirection,WindDirectionDegrees,WindSpeedMPH,WindSpeedGustMPH,Humidity,HourlyPrecipIn,Conditions,Clouds,dailyrainin,SolarRadiationWatts/m^2,SoftwareType,DateUTC
2013-10-31 00:04:00,57.0,54.0,-100.00,ESE,116,3.0,5.0,90,0.00,,,0.00,0.000000,,2013-10-31 04:04:00,
2013-10-31 00:43:00,56.0,53.0,-100.00,NE,48,3.0,5.0,89,0.00,,,0.00,0.000000,,2013-10-31 04:43:00,
2013-10-31 00:54:00,56.0,53.0,-100.00,NE,48,3.0,5.0,89,0.00,,,0.00,0.000000,,2013-10-31 04:54:00,
2013-10-31 01:04:00,56.0,53.0,-100.00,NE,48,3.0,5.0,89,0.00,,,0.00,0.000000,,2013-10-31 05:04:00,
2013-10-31 01:43:00,56.0,53.0,-100.00,NNE,26,3.0,6.0,91,0.00,,,0.00,0.000000,,2013-10-31 05:43:00,
2013-10-31 01:52:00,56.0,53.0,-100.00,NNE,26,3.0,6.0,91,0.00,,,0.00,0.000000,,2013-10-31 05:52:00,
2013-10-31 02:02:00,56.0,53.0,-100.00,NNE,26,3.0,6.0,91,0.00,,,0.00,0.000000,,2013-10-31 06:02:00,
2013-10-31 02:42:00,55.0,53.0,-100.00,NNE,17,3.0,5.0,92,0.00,,,0.00,0.000000,,2013-10-31 06:42:00,
2013-10-31 02:53:00,55.0,53.0,-100.00,NNE,17,3.0,5.0,92,0.00,,,0.00,0.000000,,2013-10-31 06:53:00,
2013-10-31 03:01:00,55.0,53.0,-100.00,NNE,17,3.0,5.0,92,0.00,,,0.00,0.000000,,2013-10-31 07:01:00,
2013-10-31 03:42:00,55.0,52.0,-100.00,NNE,18,2.0,6.0,91,0.00,,,0.00,0.000000,,2013-10-31 07:42:00,
2013-10-31 03:52:00,55.0,52.0,-100.00,NNE,18,2.0,6.0,91,0.00,,,0.00,0.000000,,2013-10-31 07:52:00,
2013-10-31 04:03:00,55.0,52.0,-100.00,NNE,18,2.0,6.0,91,0.00,,,0.00,0.000000,,2013-10-31 08:03:00,
2013-10-31 04:42:00,55.0,52.0,-100.00,NNE,19,3.0,6.0,91,0.00,,,0.00,0.000000,,2013-10-31 08:42:00,
2013-10-31 04:52:00,55.0,52.0,-100.00,NNE,19,3.0,6.0,91,0.00,,,0.00,0.000000,,2013-10-31 08:52:00,
2013-10-31 05:02:00,55.0,52.0,-100.00,NNE,19,3.0,6.0,91,0.00,,,0.00,0.000000,,2013-10-31 09:02:00,
2013-10-31 05:43:00,59.0,53.0,-100.00,NNE,24,2.0,5.0,81,0.00,,,0.00,0.000000,,2013-10-31 09:43:00,
2013-10-31 05:53:00,59.0,53.0,-100.00,NNE,24,2.0,5.0,81,0.00,,,0.00,0.000000,,2013-10-31 09:53:00,
2013-10-31 06:03:00,59.0,53.0,-100.00,NNE,24,2.0,5.0,81,0.00,,,0.00,0.000000,,2013-10-31 10:03:00,
2013-10-31 06:42:00,60.0,53.0,-100.00,NNE,26,2.0,5.0,77,0.00,,,0.00,0.000000,,2013-10-31 10:42:00,
2013-10-31 06:53:00,60.0,53.0,-100.00,NNE,26,2.0,5.0,77,0.00,,,0.00,0.000000,,2013-10-31 10:53:00,
2013-10-31 07:03:00,60.0,53.0,-100.00,NNE,26,2.0,5.0,77,0.00,,,0.00,0.000000,,2013-10-31 11:03:00,
2013-10-31 07:42:00,62.0,52.0,-100.00,NNE,21,2.0,6.0,69,0.00,,,0.00,0.000000,,2013-10-31 11:42:00,
2013-10-31 07:52:00,62.0,52.0,-100.00,NNE,21,2.0,6.0,69,0.00,,,0.00,0.000000,,2013-10-31 11:52:00,
2013-10-31 08:01:00,62.0,52.0,-100.00,NNE,21,2.0,6.0,69,0.00,,,0.00,0.000000,,2013-10-31 12:01:00,
2013-10-31 08:42:00,62.0,52.0,-100.00,NNE,24,2.0,7.0,70,0.00,,,0.00,0.000000,,2013-10-31 12:42:00,
2013-10-31 08:52:00,62.0,52.0,-100.00,NNE,24,2.0,7.0,70,0.00,,,0.00,0.000000,,2013-10-31 12:52:00,
2013-10-31 09:02:00,62.0,52.0,-100.00,NNE,24,2.0,7.0,70,0.00,,,0.00,0.000000,,2013-10-31 13:02:00,
2013-10-31 09:42:00,62.0,51.0,-100.00,NNE,33,4.0,13.0,67,0.00,,,0.00,31.000000,,2013-10-31 13:42:00,
2013-10-31 09:52:00,62.0,51.0,-100.00,NNE,33,4.0,13.0,67,0.00,,,0.00,31.000000,,2013-10-31 13:52:00,
2013-10-31 10:02:00,62.0,51.0,-100.00,NNE,33,4.0,13.0,67,0.00,,,0.00,31.000000,,2013-10-31 14:02:00,
2013-10-31 10:42:00,64.0,52.0,-100.00,NE,40,4.0,10.0,64,0.00,,,0.00,61.000000,,2013-10-31 14:42:00,
2013-10-31 10:52:00,64.0,52.0,-100.00,NE,40,4.0,10.0,64,0.00,,,0.00,61.000000,,2013-10-31 14:52:00,
2013-10-31 11:02:00,64.0,52.0,-100.00,NE,40,4.0,10.0,64,0.00,,,0.00,61.000000,,2013-10-31 15:02:00,
2013-10-31 12:43:00,67.0,50.0,-100.00,NE,37,4.0,15.0,55,-99.99,,,-99.99,185.000000,,2013-10-31 16:43:00,
2013-10-31 12:53:00,67.0,50.0,-100.00,NE,37,4.0,15.0,55,-99.99,,,-99.99,185.000000,,2013-10-31 16:53:00,
2013-10-31 13:03:00,67.0,50.0,-100.00,NE,37,4.0,15.0,55,-99.99,,,-99.99,185.000000,,2013-10-31 17:03:00,
2013-10-31 13:43:00,67.0,52.0,-100.00,ENE,58,5.0,14.0,59,0.00,,,-99.99,221.000000,,2013-10-31 17:43:00,
2013-10-31 13:52:00,67.0,52.0,-100.00,ENE,58,5.0,14.0,59,0.00,,,-99.99,221.000000,,2013-10-31 17:52:00,
2013-10-31 14:02:00,67.0,52.0,-100.00,ENE,58,5.0,14.0,59,0.00,,,-99.99,221.000000,,2013-10-31 18:02:00,
2013-10-31 14:42:00,68.0,54.0,-100.00,NE,43,5.0,16.0,61,0.00,,,-99.99,253.000000,,2013-10-31 18:42:00,
2013-10-31 14:52:00,68.0,54.0,-100.00,NE,43,5.0,16.0,61,0.00,,,-99.99,253.000000,,2013-10-31 18:52:00,
2013-10-31 15:01:00,68.0,54.0,-100.00,NE,43,5.0,16.0,61,0.00,,,-99.99,253.000000,,2013-10-31 19:01:00,
2013-10-31 15:42:00,68.0,54.0,-100.00,ENE,63,6.0,22.0,62,0.00,,,-99.99,224.000000,,2013-10-31 19:42:00,
2013-10-31 15:52:00,68.0,54.0,-100.00,ENE,63,6.0,22.0,62,0.00,,,-99.99,224.000000,,2013-10-31 19:52:00,
2013-10-31 16:02:00,68.0,54.0,-100.00,ENE,63,6.0,22.0,62,0.00,,,-99.99,224.000000,,2013-10-31 20:02:00,
2013-10-31 16:42:00,68.0,55.0,-100.00,NE,47,5.0,16.0,64,0.00,,,-99.99,134.000000,,2013-10-31 20:42:00,
2013-10-31 16:52:00,68.0,55.0,-100.00,NE,47,5.0,16.0,64,0.00,,,-99.99,134.000000,,2013-10-31 20:52:00,
2013-10-31 17:02:00,68.0,55.0,-100.00,NE,47,5.0,16.0,64,0.00,,,-99.99,134.000000,,2013-10-31 21:02:00,
2013-10-31 17:44:00,67.0,54.0,-100.00,NE,48,5.0,13.0,64,0.00,,,-99.99,92.000000,,2013-10-31 21:44:00,
2013-10-31 17:54:00,67.0,54.0,-100.00,NE,48,5.0,13.0,64,0.00,,,-99.99,92.000000,,2013-10-31 21:54:00,
2013-10-31 18:03:00,67.0,54.0,-100.00,NE,48,5.0,13.0,64,0.00,,,-99.99,92.000000,,2013-10-31 22:03:00,
2013-10-31 18:43:00,67.0,54.0,-100.00,NE,51,4.0,13.0,64,0.00,,,-99.99,30.000000,,2013-10-31 22:43:00,
2013-10-31 18:53:00,67.0,54.0,-100.00,NE,51,4.0,13.0,64,0.00,,,-99.99,30.000000,,2013-10-31 22:53:00,
2013-10-31 19:03:00,67.0,54.0,-100.00,NE,51,4.0,13.0,64,0.00,,,-99.99,30.000000,,2013-10-31 23:03:00,
2013-10-31 19:43:00,67.0,56.0,-100.00,NE,54,4.0,14.0,69,0.00,,,-99.99,1.000000,,2013-10-31 23:43:00,
2013-10-31 19:54:00,67.0,56.0,-100.00,NE,54,4.0,14.0,69,0.00,,,-99.99,1.000000,,2013-10-31 23:54:00,
2013-10-31 20:02:00,67.0,56.0,-100.00,NE,54,4.0,14.0,69,0.00,,,-99.99,1.000000,,2013-11-01 00:02:00,
2013-10-31 20:42:00,63.0,59.0,-100.00,NE,41,3.0,13.0,86,0.02,,,-99.99,0.000000,,2013-11-01 00:42:00,
2013-10-31 20:52:00,63.0,59.0,-100.00,NE,41,3.0,13.0,86,0.02,,,-99.99,0.000000,,2013-11-01 00:52:00,
2013-10-31 21:01:00,63.0,59.0,-100.00,NE,41,3.0,13.0,86,0.02,,,-99.99,0.000000,,2013-11-01 01:01:00,
2013-10-31 21:42:00,62.0,59.0,-100.00,NE,40,3.0,11.0,90,0.01,,,-99.99,0.000000,,2013-11-01 01:42:00,
2013-10-31 21:52:00,62.0,59.0,-100.00,NE,40,3.0,11.0,90,0.01,,,-99.99,0.000000,,2013-11-01 01:52:00,
2013-10-31 22:03:00,62.0,59.0,-100.00,NE,40,3.0,11.0,90,0.01,,,-99.99,0.000000,,2013-11-01 02:03:00,
2013-10-31 22:42:00,62.0,58.0,-100.00,NE,37,3.0,9.0,86,0.04,,,-99.99,0.000000,,2013-11-01 02:42:00,
2013-10-31 22:52:00,62.0,58.0,-100.00,NE,37,3.0,9.0,86,0.04,,,-99.99,0.000000,,2013-11-01 02:52:00,
2013-10-31 23:03:00,62.0,58.0,-100.00,NE,37,3.0,9.0,86,0.04,,,-99.99,0.000000,,2013-11-01 03:03:00,
2013-10-31 23:45:00,62.0,59.0,-100.00,NE,37,6.0,16.0,90,0.11,,,-99.99,0.000000,,2013-11-01 03:45:00,
2013-10-31 23:54:00,62.0,59.0,-100.00,NE,37,6.0,16.0,90,0.11,,,-99.99,0.000000,,2013-11-01 03:54:00,